www.pogodaiklimat.ru

Погода и климат >> Архив погоды >> Франция >> Фигари


ПОГОДА в Фигари

  • Прогноз погоды в Фигари
  • Монитор погоды в Фигари

АРХИВ ПОГОДЫ в Фигари

Время (UTC), дата Ветер
(напр.,м/с)
 
Видим.   Явления Облачность Т
(С)
Тd
(С)
f
(%)
Тe
(С)
Тes
(С)
Комфортность P
(гПа)
Po
(гПа)
Тmin
(С)
Tmax
(С)
R
(мм)
R24
(мм)
S
(см)
19 10.06 Ю 2-4
{6}
20 км н/о +21.2 +16.2 73 +25 +25 комфорт 1009.1 1006.4
20 10.06 ЮЗ 4-7
{7}
16 км н/о +20.7 +16.5 77 +24 +24 комфорт 1009.9 1007.2
21 10.06 З 4-6
{8}
14 км н/о +20.4 +16.8 80 +24 +24 комфорт 1010.1 1007.4
22 10.06 ЮЗ 5-7
{7}
13 км н/о +20.2 +17.2 83 +23 +23 комфорт 1010.3 1007.6
23 10.06 ЮЗ 5-7
{8}
10 км 8/8 300 м
[]
+19.7 +17.5 87 +22 +22 комфорт 1009.8 1007.1
00 11.06 ЮЗ 5-8
{8}
10 км н/о +19.4 +17.4 88 +21 +21 комфорт 1009.0 1006.3
01 11.06 ЮЗ 4-7
{8}
13 км н/о +20.0 +16.2 79 +23 +23 комфорт 1008.3 1005.6
02 11.06 СВ 2-2
{4}
12 км н/о +18.4 +16.4 88 +20 +20 1009.5 1006.8
03 11.06 Ю 1
{3}
6000 м 9/9 300 м
[]
+17.3 +15.8 91 +19 +19 1009.6 1006.9
04 11.06 З 1-1
{1}
9000 м 10/10 420 м
[]
+18.1 +16.8 92 +20 +20 1009.8 1007.1
05 11.06 Ю 1 11 км 10/10 270 м
[]
+18.7 +17.2 91 +21 +21 комфорт 1010.0 1007.3
06 11.06 ЮЗ 1
{4}
19 км 10/10 300 м
[]
+19.7 +17.5 87 +23 +23 комфорт 1010.1 1007.4 +17.2 +23.4
07 11.06 ЮЗ 1-2
{2}
17 км 10/10 360 м
[]
+21.7 +17.7 78 +26 +26 душно 1009.9 1007.2
08 11.06 Ю 2-4
{4}
12 км н/о +23.8 +17.5 68 +28 +28 душно 1009.8 1007.2
09 11.06 Ю 3-4
{4}
19 км н/о +24.4 +17.1 64 +28 +28 душно 1009.7 1007.1
10 11.06 Ю 3-4
{4}
19 км н/о +25.2 +17.1 61 +29 +29 душно 1010.2 1007.6
11 11.06 Ю 2-4
{4}
19 км н/о +25.9 +16.4 56 +29 +29 душно 1009.7 1007.1
12 11.06 Ю 2-3
{4}
30 км н/о +26.5 +15.5 51 +30 +30 душно 1009.5 1006.9
13 11.06 Ю 2-4
{4}
30 км н/о +28.1 +15.4 46 +31 +31 душно 1008.5 1005.9
14 11.06 Ю 2-3
{4}
35 км н/о +28.5 +15.8 46 +32 +32 душно 1008.4 1005.8
15 11.06 ЮВ 2-4
{5}
40 км н/о +26.5 +17.0 56 +30 +30 душно 1008.7 1006.1
16 11.06 СВ 2 19 км 8/8 750 м
[]
+24.7 +18.4 68 +29 +30 душно 1008.2 1005.6
17 11.06 В 2-3
{5}
19 км 10/10 570 м
[]
+23.1 +18.2 74 +29 +29 очень
душно
1008.7 1006.1
18 11.06 З 2
{6}
18 км 10/10 300 м
[]
+21.8 +17.4 76 +26 +26 душно 1009.3 1006.6 +19.6 +29.0
19 11.06 СЗ 1-2
{2}
18 км 10/10 500 м
[]
+21.9 +17.5 76 +26 +26 душно 1009.4 1006.7
20 11.06 З 1-2
{2}
16 км 10/10 480 м
[]
+21.7 +17.7 78 +26 +26 душно 1009.6 1006.9
21 11.06 ЮЗ 2-3
{3}
19 км 10/10 600 м
[]
+21.1 +17.3 79 +25 +25 комфорт 1009.7 1007.0
22 11.06 Ю 2-4
{4}
20 км 9/9 2000 м
[]
+20.7 +17.1 80 +25 +25 комфорт 1009.8 1007.1
23 11.06 З 1-2
{4}
22 км н/о +20.2 +16.4 79 +25 +25 комфорт 1009.2 1006.5
00 12.06 С 1-2
{2}
17 км н/о +19.0 +16.6 86 +22 +22 комфорт 1009.0 1006.3
01 12.06 СВ 1-2
{3}
15 км 9/9 1500 м
[]
+19.1 +16.9 87 +22 +22 комфорт 1009.6 1006.9
02 12.06 СЗ 1-1
{2}
12 км 10/1 600 м
[]
+19.0 +16.8 87 +22 +22 комфорт 1009.8 1007.1
03 12.06 СВ 1-1
{2}
11 км н/о +17.3 +15.6 90 +18 +18 1009.8 1007.1
04 12.06 С 1-1
{2}
8000 м н/о +16.2 +14.7 91 +18 +18 1010.0 1007.3
05 12.06 С 1-1
{1}
9000 м н/о +17.1 +15.8 92 +19 +19 1010.4 1007.7
06 12.06 ЮВ 1
{3}
21 км н/о +20.5 +16.9 80 +25 +25 комфорт 1010.7 1008.0 +16.0 +22.0
07 12.06 СВ 1-2
{2}
25 км н/о +23.9 +15.9 61 +27 +27 жарко 1011.1 1008.4
08 12.06 З 4-6
{6}
26 км н/о +25.6 +15.6 54 +29 +29 душно 1011.0 1008.4
09 12.06 З 5-6
{7}
28 км н/о +26.2 +15.0 50 +29 +29 жарко 1011.0 1008.4
10 12.06 З 5-7
{7}
28 км н/о +27.5 +13.8 43 +30 +30 жарко 1010.9 1008.3
11 12.06 ЮЗ 6-8
{8}
28 км н/о +27.6 +13.9 43 +30 +30 жарко 1011.5 1008.9
12 12.06 З 5-8
{8}
26 км н/о +27.2 +13.5 43 +29 +29 жарко 1011.9 1009.3
13 12.06 ЮЗ 5-8
{8}
27 км н/о +27.6 +12.8 40 +29 +29 жарко 1012.4 1009.8
14 12.06 ЮЗ 5-7
{8}
19 км н/о +26.7 +12.0 40 +28 +28 жарко 1012.6 1010.0
15 12.06 З 5-6
{7}
19 км н/о +27.1 +11.9 39 +28 +28 жарко 1012.9 1010.3
16 12.06 З 4-6
{7}
28 км н/о +26.6 +11.5 39 +28 +28 жарко 1012.7 1010.1
17 12.06 ЮЗ 4-6
{6}
30 км н/о +24.9 +11.5 43 +26 +26 жарко 1012.7 1010.0
18 12.06 З 4-5
{6}
40 км н/о +22.7 +11.4 49 +25 +25 комфорт 1013.3 1010.6 +20.6 +28.2
19 12.06 З 3-4
{5}
60 км н/о +20.5 +11.4 56 +23 +23 комфорт 1013.8 1011.1
20 12.06 ЮВ 1-1
{3}
60 км н/о +17.8 +11.1 65 +19 +19 1014.5 1011.8
21 12.06 ЮВ 1-1
{1}
60 км н/о +15.7 +11.1 74 +17 +17 1014.8 1012.1
22 12.06 С 1-2
{2}
55 км н/о +14.4 +10.6 78 +15 +15 1015.2 1012.4
23 12.06 СВ 1-2
{2}
55 км н/о +13.4 +10.4 82 +14 +14 1014.9 1012.1
00 13.06 СВ 2-1
{3}
45 км н/о +12.0 +9.7 86 +11 +11 1014.9 1012.1
01 13.06 С 1-1
{1}
45 км н/о +11.1 +9.0 87 +12 +12 1014.8 1012.0
02 13.06 С 1-1
{1}
40 км н/о +10.4 +8.8 90 +11 +11 1015.0 1012.2
03 13.06 С 1-2
{2}
35 км н/о +10.9 +9.5 91 +11 +11 1015.0 1012.2
04 13.06 З 1-1
{1}
29 км н/о +9.7 +8.3 91 +10 +10 1015.2 1012.4
05 13.06 ЮЗ 1-1
{1}
40 км н/о +12.9 +11.3 90 +14 +14 1015.8 1013.0
06 13.06 В 2
{7}
35 км н/о +21.2 +16.2 73 +25 +25 комфорт 1016.1 1013.4 +9.3 +22.7
07 13.06 В 2-3
{4}
45 км н/о +23.2 +16.0 64 +28 +28 душно 1016.5 1013.8
08 13.06 СВ 2-3
{3}
55 км н/о +24.5 +15.7 58 +28 +28 душно 1016.1 1013.4
09 13.06 В 2-3
{4}
35 км н/о +25.8 +16.4 56 +29 +29 душно 1016.2 1013.6
10 13.06 В 2-4
{4}
50 км н/о +26.6 +16.5 54 +30 +30 душно 1016.0 1013.4
11 13.06 В 2-4
{4}
45 км н/о +28.0 +16.0 48 +31 +31 душно 1015.7 1013.1
12 13.06 В 3-5
{5}
19 км н/о +27.6 +16.2 50 +31 +31 душно 1015.3 1012.7
13 13.06 В 3-5
{6}
40 км н/о +27.7 +15.4 47 +31 +31 душно 1015.7 1013.1
14 13.06 В 4-6
{6}
35 км н/о +27.2 +15.6 49 +30 +30 душно 1015.5 1012.9
15 13.06 В 3-6
{6}
35 км н/о +27.0 +15.4 49 +30 +30 душно 1015.3 1012.7
16 13.06 В 3-6
{6}
35 км н/о +26.4 +14.5 48 +29 +29 жарко 1014.9 1012.3
17 13.06 СВ 4-6
{7}
35 км н/о +25.8 +14.6 50 +28 +28 жарко 1014.6 1012.0
18 13.06 СВ 3-6
{7}
45 км н/о +23.4 +14.9 59 +27 +27 душно 1014.9 1012.2 +21.3 +28.4
19 13.06 СВ 3-6
{7}
50 км н/о +21.8 +14.9 65 +25 +25 комфорт 1014.9 1012.2
20 13.06 СВ 3-5
{6}
50 км н/о +21.7 +15.1 66 +25 +25 комфорт 1015.5 1012.8
21 13.06 СВ 4-7
{7}
45 км н/о +21.3 +15.8 71 +25 +25 комфорт 1015.6 1012.9
22 13.06 В 3-6
{6}
45 км н/о +21.4 +15.5 69 +25 +25 комфорт 1015.6 1012.9
23 13.06 В 3-5
{6}
50 км н/о +21.9 +13.8 60 +25 +25 комфорт 1014.9 1012.2
00 14.06 СВ 3-5
{7}
55 км н/о +22.3 +11.7 51 +25 +25 комфорт 1014.7 1012.0
01 14.06 СВ 3-5
{6}
45 км н/о +20.4 +14.1 67 +23 +23 комфорт 1014.7 1012.0
02 14.06 СВ 4-7
{7}
40 км н/о +20.5 +16.5 78 +24 +24 комфорт 1013.9 1011.2
03 14.06 СВ 4-7
{7}
35 км н/о +20.1 +16.1 78 +23 +23 комфорт 1013.7 1011.0
04 14.06 В 4-7
{8}
55 км н/о +20.3 +12.3 60 +22 +22 комфорт 1013.7 1011.0
05 14.06 В 4-6
{7}
50 км 10/10
[]
+21.5 +10.9 51 +23 +23 комфорт 1013.8 1011.1
06 14.06 В 4
{15}
50 км н/о +23.6 +10.6 44 +25 +25 комфорт 1013.7 1011.0 +19.8 +23.7
07 14.06 В 4-8
{8}
23 км н/о +25.9 +10.1 37 +27 +27 жарко 1013.9 1011.3
08 14.06 СВ 5-8
{9}
22 км н/о +28.1 +9.4 31 +28 +28 жарко 1013.5 1010.9
09 14.06 СВ 6-9
{9}
28 км н/о +29.9 +9.9 29 +30 +30 жарко 1013.2 1010.6
10 14.06 В 4-7
{9}
19 км н/о +30.1 +11.6 32 +31 +31 жарко 1013.1 1010.5
11 14.06 В 4-8
{8}
35 км н/о +29.1 +12.5 36 +30 +30 жарко 1013.1 1010.5
12 14.06 В 4-7
{8}
45 км н/о +26.3 +14.1 47 +29 +29 жарко 1013.1 1010.5
13 14.06 В 5 22 км н/о +24.9 +16.6 60 +28 +28 жарко 1012.2 1009.6
14 14.06 В 5-8
{10}
20 км н/о +24.7 +18.2 67 +29 +29 душно 1012.1 1009.5
15 14.06 СВ 5-8
{9}
19 км н/о +25.8 +18.7 65 +31 +31 очень
душно
1012.6 1010.0
16 14.06 В 1-3
{6}
25 км 10/10
[]
+25.7 +19.1 67 +31 +31 очень
душно
1013.1 1010.5
17 14.06 В 1 25 км 8/8
[]
+25.3 +18.7 67 +30 +31 душно 1013.6 1011.0
18 14.06 ЮЗ 2
{5}
25 км н/о +25.1 +18.8 68 +30 +30 душно 1013.4 1010.8 +23.8 +30.6
19 14.06 ЮЗ 4-6
{7}
13 км н/о +22.3 +18.1 77 +27 +27 душно 1013.9 1011.2
20 14.06 ЮЗ 4-5
{7}
16 км н/о +22.7 +17.8 74 +28 +28 душно 1014.8 1012.1
21 14.06 ЮЗ 4-6
{6}
16 км н/о +21.6 +17.4 77 +26 +26 душно 1015.3 1012.6
22 14.06 ЮЗ 5 16 км н/о +20.8 +17.2 80 +24 +24 комфорт 1015.9 1013.2
23 14.06 ЮЗ 5-7
{8}
17 км н/о +20.6 +17.0 80 +24 +24 комфорт 1015.6 1012.9
00 15.06 ЮЗ 6-8
{8}
14 км н/о +20.4 +17.4 83 +24 +24 комфорт 1015.3 1012.6
01 15.06 ЮЗ 5 14 км 9/9 420 м
[]
+20.3 +17.5 84 +23 +23 комфорт 1015.2 1012.5
02 15.06 ЮЗ 5 14 км 9/9 480 м
[]
+19.9 +17.1 84 +22 +22 комфорт 1015.1 1012.4
03 15.06 ЮЗ 4-6
{7}
13 км н/о +19.8 +17.2 85 +22 +22 комфорт 1015.4 1012.7
04 15.06 ЮЗ 5-7
{7}
11 км н/о +19.5 +17.6 89 +22 +22 комфорт 1015.4 1012.7
05 15.06 ЮЗ 4-6
{7}
13 км н/о +20.1 +17.5 85 +23 +23 комфорт 1015.9 1013.2
06 15.06 З 3
{11}
12 км н/о +21.2 +17.6 80 +25 +25 комфорт 1016.6 1013.9 +19.5 +25.1
07 15.06 З 2-3
{5}
14 км н/о +23.3 +18.0 72 +29 +29 душно 1016.7 1014.0
08 15.06 ЮЗ 2-3
{4}
19 км н/о +24.2 +17.9 68 +28 +28 душно 1017.0 1014.3
09 15.06 Ю 2-4
{4}
18 км н/о +23.9 +17.6 68 +28 +28 душно 1017.1 1014.4
10 15.06 ЮЗ 3-5
{5}
15 км н/о +25.6 +17.5 61 +30 +30 душно 1016.9 1014.3
11 15.06 Ю 4-6
{6}
17 км н/о +25.7 +17.1 59 +30 +30 душно 1016.9 1014.3
12 15.06 ЮЗ 4-6
{6}
17 км н/о +27.1 +17.3 55 +31 +31 душно 1016.4 1013.8
13 15.06 ЮЗ 5-7
{7}
18 км н/о +28.4 +16.7 49 +32 +32 душно 1016.0 1013.4
14 15.06 ЮЗ 5-7
{7}
18 км н/о +27.0 +16.3 52 +30 +30 душно 1015.8 1013.2
15 15.06 ЮЗ 5-6
{7}
19 км н/о +27.0 +16.6 53 +31 +31 душно 1015.6 1013.0
16 15.06 Ю 3-4
{5}
35 км н/о +25.3 +15.6 55 +28 +28 жарко 1015.8 1013.1
17 15.06 ЮЗ 3-4
{5}
19 км н/о +26.7 +13.8 45 +29 +29 жарко 1015.5 1012.9
18 15.06 Ю 3-4
{5}
40 км н/о +23.9 +14.3 55 +26 +26 жарко 1015.9 1013.2 +21.0 +28.5
19 15.06 Ю 2-3
{4}
40 км н/о +21.1 +14.7 67 +24 +24 комфорт 1016.1 1013.4
20 15.06 Ю 1-2
{3}
35 км н/о +19.7 +13.6 68 +23 +23 комфорт 1016.5 1013.8
21 15.06 В 1-1
{3}
26 км н/о +16.4 +12.6 78 +18 +18 1016.7 1014.0
22 15.06 СЗ 1-2
{2}
35 км н/о +14.8 +11.9 83 +16 +16 1017.0 1014.2
23 15.06 ЮЗ 4-4
{5}
35 км н/о +19.6 +13.8 69 +21 +21 комфорт 1016.8 1014.1
00 16.06 ЮЗ 4-6
{6}
20 км н/о +19.4 +15.9 80 +21 +21 комфорт 1016.6 1013.9
01 16.06 СВ 1-2
{6}
30 км н/о +16.1 +12.6 80 +17 +17 1016.3 1013.6
02 16.06 СВ 1-3
{3}
27 км н/о +14.0 +12.0 88 +14 +14 1016.3 1013.5
03 16.06 ЮЗ 3-4
{4}
23 км н/о +17.6 +14.7 83 +18 +18 1016.0 1013.3
04 16.06 ЮЗ 4-6
{6}
17 км н/о +18.5 +15.7 84 +19 +19 1016.1 1013.4
05 16.06 ЮЗ 4-6
{6}
14 км н/о +19.5 +16.2 81 +21 +21 комфорт 1016.3 1013.6
06 16.06 З 5
{12}
19 км н/о +21.2 +14.8 67 +24 +24 комфорт 1016.7 1014.0 +13.6 +23.9
07 16.06 З 5-7
{7}
19 км н/о +22.3 +14.9 63 +26 +26 жарко 1017.0 1014.3
08 16.06 ЮЗ 5-7
{8}
19 км н/о +23.9 +15.9 61 +27 +27 жарко 1017.0 1014.3
09 16.06 ЮЗ 5-7
{8}
20 км н/о +24.1 +16.4 62 +28 +28 душно 1017.0 1014.3
10 16.06 ЮЗ 5-7
{7}
19 км н/о +24.8 +17.0 62 +29 +29 душно 1016.6 1013.9
11 16.06 ЮЗ 5-7
{7}
20 км н/о +25.1 +17.0 61 +29 +29 душно 1016.4 1013.7
12 16.06 ЮЗ 5-7
{7}
19 км н/о +24.9 +16.9 61 +29 +29 душно 1016.1 1013.4
13 16.06 ЮЗ 4-7
{7}
18 км н/о +25.9 +17.0 58 +30 +30 душно 1015.9 1013.3
14 16.06 ЮЗ 4-7
{7}
18 км н/о +25.7 +15.7 54 +29 +29 душно 1015.9 1013.3
15 16.06 Ю 4-6
{7}
20 км н/о +25.1 +17.0 61 +29 +29 душно 1015.8 1013.1
16 16.06 ЮЗ 4-6
{7}
18 км н/о +24.3 +16.6 62 +28 +28 душно 1015.5 1012.8
17 16.06 ЮЗ 3-5
{6}
20 км н/о +24.2 +16.2 61 +28 +28 душно 1015.3 1012.6
18 16.06 ЮЗ 4-5
{5}
28 км н/о +21.9 +16.2 70 +26 +26 душно 1015.0 1012.3 +21.3 +26.7
19 16.06 Ю 1-3
{5}
30 км н/о +19.3 +15.8 80 +22 +22 комфорт 1015.3 1012.6
20 16.06 ЮЗ 4-5
{5}
30 км н/о +18.9 +15.9 83 +20 +20 1015.3 1012.6
21 16.06 СВ 1-1
{5}
30 км н/о +16.3 +14.1 87 +18 +18 1015.6 1012.9
22 16.06 СВ 1-1
{2}
18 км н/о +14.2 +12.4 89 +15 +15 1015.7 1012.9
23 16.06 С 1-2
{2}
13 км н/о +13.1 +11.5 90 +13 +13 1015.6 1012.8
00 17.06 СВ 1-2
{2}
19 км н/о +13.7 +12.6 93 +14 +14 1015.7 1012.9
01 17.06 СВ 1-2
{2}
18 км н/о +13.4 +12.3 93 +13 +13 1015.8 1013.0
02 17.06 С 1-1
{2}
16 км н/о +12.9 +11.6 92 +14 +14 1015.8 1013.0
03 17.06 СВ 1-1
{2}
23 км 10/10 300 м
[]
+14.2 +13.2 94 +15 +15 1015.6 1012.8
04 17.06 СЗ 1-1
{1}
21 км н/о +14.0 +12.6 91 +15 +15 1015.4 1012.6
05 17.06 С 1-1
{1}
23 км н/о +15.5 +14.0 91 +17 +17 1015.4 1012.7 0.2
06 17.06 ЮЗ 1
{3}
30 км н/о +19.5 +16.2 81 +23 +23 комфорт 1015.7 1013.0 +12.2 +21.8 0.2
07 17.06 Ю 2-3
{3}
45 км н/о +21.9 +16.0 69 +26 +26 душно 1016.1 1013.4
08 17.06 Ю 2-3
{4}
19 км н/о +22.6 +16.6 69 +27 +27 душно 1016.4 1013.7
09 17.06 ЮЗ 2-3
{4}
19 км н/о +24.3 +16.6 62 +28 +28 душно 1015.9 1013.2
10 17.06 ЮЗ 2-4
{4}
19 км н/о +25.3 +16.2 57 +29 +29 душно 1016.0 1013.3
11 17.06 ЮЗ 2-4
{5}
40 км н/о +26.1 +16.4 55 +30 +30 душно 1015.7 1013.1
12 17.06 Ю 2-3
{4}
35 км н/о +27.8 +14.4 44 +30 +30 жарко 1015.0 1012.4
13 17.06 Ю 2-3
{4}
45 км н/о +28.3 +11.4 35 +29 +29 жарко 1014.9 1012.3
14 17.06 ЮЗ 2-4
{4}
19 км н/о +27.9 +11.4 36 +29 +29 жарко 1014.8 1012.2
15 17.06 ЮЗ 2-3
{4}
60 км н/о +29.4 +11.4 33 +30 +30 жарко 1014.1 1011.5
16 17.06 Ю 4
{7}
55 км н/о +26.1 +13.2 45 +28 +28 жарко 1013.7 1011.1
17 17.06 Ю 2-3
{3}
55 км н/о +25.8 +15.2 52 +29 +29 душно 1013.7 1011.1
18 17.06 Ю 2-4
{4}
45 км н/о +22.8 +17.0 70 +28 +28 душно 1014.0 1011.3 +19.6 +29.4

 

Местоположение метеостанции Фигари (Франция): широта 41.50 долгота 9.10 высота над уровнем моря 23 м.

В архиве по умолчанию представлена погода в Фигари за последнюю неделю. Архивные данные за месяц целиком и за предыдущие месяцы, начиная с января 2011 года, Вы можете получить, выбрав интересующий диапазон дат из раскрывающегося списка и нажав кнопку "Ввод!".


*Определитесь, кто Вы:
робот инопланетянин человек

Внимание! Время в таблицах - всемирное. Для получения местного времени необходимо прибавить поправку, которая равна 1 ч.

Смотрите также архив погоды в соседних городах и на ближайших метеорологических станциях:

Погода на Мысе Пертюзато (Франция) (16 км)
Погода в Аяччо (Франция) (53 км)
Погода в Соленцаре (Франция) (53 км)
Погода в Ла Парате (Франция) (61 км)
Погода в Ольвии (Италия) (75 км)
Погода в Алистро (Франция) (93 км)
Погода в Кальви (Франция) (117 км)
Погода в Альгеро (Италия) (119 км)
Погода в Бастии (Франция) (121 км)
Погода в Л’Иль-Русе (Франция) (127 км)

Пояснения к столбцам:

Ветер - указаны скорость ветра в м/с - средняя за 10 мин, порывы в срок и между сроками (в фигурных скобках) и направление, откуда дует ветер: С - северный, СВ - северо-восточный, В - восточный, ЮВ - юго-восточный, Ю - южный, ЮЗ - юго-западный, З - западный, СЗ - северо-западный.
Видимость - горизонтальная дальность видимости в метрах или километрах. При видимости от 1 до 10 км при отсутствии осадков обычно наблюдается дымка, при ухудшении видимости до 1 км и менее - туман. В сухую погоду видимость может ухудшаться дымом, пылью или мглою.
Явления - указаны атмосферные явления, наблюдавшиеся в срок или в последний час перед сроком; фигурными скобками обозначены явления, наблюдавшиеся между сроками (за 1-3 часа до срока); квадратными скобками обозначены град или гололедные отложения с указанием их диаметра в мм.
Облачность - указаны через наклонную черту общая и нижняя облачность в баллах и высота нижней границы облаков в метрах; квадратными скобками обозначены формы облаков: Ci - перистые, Cs - перисто-слоистые, Cc - перисто-кучевые, Ac - высококучевые, As - высокослоистые, Sc - слоисто-кучевые, Ns - слоисто-дождевые, Cu - кучевые, Cb - кучево-дождевые. Подробнее классификацию облаков см. в Атласе облаков (PDF).
T - Температура воздуха - температура, измеренная на высоте 2 м над землей.
Td - Температура точки росы - температура, при понижении до которой содержащийся в воздухе водяной пар достигнет насыщения.
f - Относительная влажность воздуха - влажноcть воздуха, измеренная на высоте 2 м над землей.
Te - Эффективная температура - температура, которую ощущает одетый по сезону человек в тени. Характеристика душности погоды. При расчете учитывается влияние влажности воздуха и скорости ветра на теплоощущения человека.
Tes - Эффективная температура на солнце - температура, которую ощущает человек, с поправкой на солнечный нагрев. Характеристика знойности погоды. Зависит от высоты солнца над горизонтом, облачности и скорости ветра. Ночью, в пасмурную погоду, а также при ветре 12 м/с и более поправка равна нулю.
P - Атмосферное давление - приведенное к уровню моря атмосферное давление.
Po - Атмосферное давление - измеренное на уровне метеостанции атмосферное давление.
Tmin - Минимальная температура - минимум температуры воздуха на высоте 2 м над землей.
Tmax - Максимальная температура - максимум температуры воздуха на высоте 2 м над землей.
R - Количество осадков - Количество выпавших осадков за период времени, мм. При наведении курсора мыши на число - период времени, за который выпало указанное количество осадков.
R24 - Количество осадков - Количество выпавших осадков за 24 часа, мм.
S - Снежный покров - Высота снежного покрова, см. При наведении курсора мыши на число - состояние снежного покрова и степень покрытия местности в баллах.